GALAXY 35

导读 | 豆包AI

GALAXY 35是由美国Maxar公司建造、Intelsat运营的地球同步通信卫星,于2022年12月13日,由欧空局阿里安-5火箭在法属圭亚那库鲁航天中心发射升空,同箭发射了Galaxy 36与MTG-I1气象卫星。它定轨地球同步轨道,主要服务北美地区,为广播公司提供传输链路,支持体育赛事直播、娱乐节目与突发新闻报道,接替退役的Galaxy 3C老卫星,保障北美地区稳定的媒体通信服务。

Basic Information
目录编号:
54741
目录名称:
GALAXY 35
国际标识:
2022-170A
轨道中心:
EARTH
卫星名称:
GALAXY 35
卫星全名:
--
卫星状态:
在轨 (已飞行1187 天)
发射日期:
2022-12-13 UTC
国别 :
美国 (US)
星等 :
--
Orbit Information
数据来源 国际轨道数据 AOE轨道数据
星历时间 2026-03-13T21:14:26+0800
13小时前
查看轨道信息
2026-03-12T18:00:00+0800
1天前
查看轨道信息
半长轴 42164.56km 42164.42km
偏心率 0.0001965 0.0001999
轨道倾角 0.013° 0.011°
近地点辐角 218.899° 218.852°
升交点赤经 137.504° 135.716°
平近点角 280.262° 232.368°
近地点 35778.137km 35777.854km
远地点 35794.709km 35794.712km
周期 1436.088分钟 1436.081分钟
每日圈数 1.002724 1.002729
Detailed Information
使用方式:
暂无
2D Orbit Map
3D Orbit Map
Orbit Altitude Analysis Chart
Orbit Inclination Analysis Chart
Orbit Comprehensive Analysis Chart
View Comprehensive Chart